DW3929 Weather Reports


time (UTC)temp
C
wind
direction
speed
KPH
gust
KPH
rain 1hr
cm
rain 24hr
cm
rain mn
cm
humidity
%
barometer
mb
20260504150820 23 360 12.9 27.4 0.00 0.00 0.00 74 1014.6
20260504150320 23 360 16.1 29.0 0.00 0.00 0.00 74 1014.5
20260504141313 21 360 6.4 19.3 0.00 0.00 0.00 78 1014.9
20260504140851 21 360 11.3 22.5 0.00 0.00 0.00 78 1014.9
20260504140330 21 360 11.3 22.5 0.00 0.00 0.00 77 1014.8
20260504130815 16 360 4.8 8.0 0.00 0.00 0.00 95 1014.9
20260504130314 16 360 4.8 8.0 0.00 0.00 0.00 96 1015.0
20260504110350 13 360 0.0 0.0 0.00 0.03 0.00 94 1014.5
20260504100313 14 360 0.0 0.0 0.00 0.03 0.00 91 1014.7
20260504081831 16 360 1.6 3.2 0.00 0.03 0.00 85 1015.2
20260504081331 16 360 0.0 3.2 0.00 0.03 0.00 84 1015.2
20260504080831 16 360 0.0 3.2 0.00 0.03 0.00 84 1015.3
20260504080331 16 360 1.6 3.2 0.00 0.03 0.00 83 1015.2
20260504050326 18 360 6.4 14.5 0.00 0.03 0.00 74 1017.1
20260504045826 18 360 6.4 19.3 0.00 0.03 0.03 74 1017.1
20260504045326 19 360 8.0 19.3 0.00 0.03 0.03 74 1017.2
20260504044827 19 360 8.0 19.3 0.00 0.03 0.03 73 1017.0
20260504044330 19 360 8.0 14.5 0.00 0.03 0.03 73 1017.1
20260504043829 19 360 6.4 14.5 0.00 0.03 0.03 73 1017.3
20260504043330 19 360 6.4 14.5 0.00 0.03 0.03 72 1017.4
20260504042831 19 360 9.7 17.7 0.00 0.03 0.03 72 1017.3
20260504042313 19 360 8.0 17.7 0.00 0.03 0.03 72 1017.4
20260504041812 19 360 8.0 17.7 0.00 0.03 0.03 72 1017.4
20260504041331 19 360 6.4 16.1 0.00 0.03 0.03 72 1017.5
20260504040812 19 360 8.0 16.1 0.00 0.03 0.03 72 1017.5
20260504040313 19 360 8.0 14.5 0.00 0.03 0.03 71 1017.5
20260504035830 19 360 6.4 14.5 0.00 0.03 0.03 71 1017.6
20260504035330 19 360 8.0 14.5 0.00 0.03 0.03 71 1017.4
20260504034829 19 360 6.4 16.1 0.00 0.03 0.03 71 1017.4
20260504034350 19 360 6.4 17.7 0.00 0.03 0.03 71 1017.3
20260504033829 19 360 8.0 17.7 0.00 0.03 0.03 71 1017.3
20260504033328 19 360 6.4 16.1 0.00 0.03 0.03 71 1017.3
20260504032828 19 360 8.0 14.5 0.00 0.03 0.03 71 1017.4
20260504032327 19 360 6.4 17.7 0.00 0.03 0.03 71 1017.4
20260504031825 19 360 6.4 17.7 0.00 0.03 0.03 72 1017.4
20260504031323 19 360 4.8 14.5 0.00 0.03 0.03 72 1017.4
20260504030824 19 360 6.4 14.5 0.00 0.03 0.03 71 1017.3
20260504030345 19 360 6.4 14.5 0.00 0.03 0.03 71 1017.2
20260504025821 18 360 6.4 14.5 0.00 0.03 0.03 72 1017.1
20260504025321 18 360 4.8 9.7 0.00 0.03 0.03 72 1017.1
20260504024821 18 360 4.8 9.7 0.00 0.03 0.03 73 1017.1
20260504024322 18 360 4.8 9.7 0.00 0.03 0.03 74 1017.1
20260504023822 17 360 4.8 12.9 0.00 0.03 0.03 75 1017.1
20260504023320 17 360 4.8 9.7 0.00 0.03 0.03 78 1017.1
20260504022820 17 360 4.8 8.0 0.00 0.03 0.03 80 1017.0
20260504022339 17 360 1.6 6.4 0.00 0.03 0.03 79 1017.1
20260504021818 18 360 0.0 0.0 0.00 0.03 0.03 79 1017.0
20260504021337 18 360 0.0 0.0 0.00 0.03 0.03 77 1016.8
20260504020817 18 360 0.0 0.0 0.00 0.03 0.03 76 1016.7
20260504020338 18 360 0.0 0.0 0.00 0.03 0.03 76 1016.6
20260504015817 18 360 0.0 1.6 0.00 0.03 0.03 74 1016.6
20260504015338 19 360 0.0 1.6 0.00 0.03 0.03 73 1016.4
20260504014817 19 360 0.0 1.6 0.00 0.03 0.03 71 1016.4
20260504014316 20 360 0.0 0.0 0.00 0.03 0.03 71 1016.4
20260504013817 20 360 0.0 0.0 0.00 0.03 0.03 70 1016.3
20260504013316 20 360 0.0 0.0 0.00 0.03 0.03 67 1016.3
20260504012815 20 360 0.0 1.6 0.00 0.03 0.03 66 1016.3
20260504012314 21 360 0.0 1.6 0.00 0.03 0.03 64 1016.2
20260504011815 21 360 0.0 0.0 0.00 0.03 0.03 62 1016.3
20260504011315 22 360 0.0 1.6 0.00 0.03 0.03 62 1016.2
20260504010816 22 360 0.0 3.2 0.00 0.03 0.03 60 1016.2
20260504010315 22 360 0.0 3.2 0.00 0.03 0.03 60 1016.2
20260504005814 22 360 0.0 4.8 0.00 0.03 0.03 57 1016.3
20260504005335 23 360 1.6 4.8 0.00 0.03 0.03 57 1016.3
20260504004815 23 360 0.0 6.4 0.00 0.03 0.03 55 1016.2
20260504004315 23 360 3.2 6.4 0.00 0.03 0.03 55 1016.2
20260504003815 23 360 3.2 4.8 0.00 0.03 0.03 53 1016.2
20260504003314 23 360 3.2 6.4 0.00 0.03 0.03 53 1016.3
20260504002833 24 360 3.2 12.9 0.00 0.03 0.03 51 1016.4
20260504002326 24 360 6.4 14.5 0.00 0.03 0.03 50 1016.4
20260504001824 25 360 4.8 9.7 0.00 0.03 0.03 50 1016.6
20260504001325 25 360 3.2 9.7 0.00 0.03 0.03 49 1016.6
20260504000826 25 360 3.2 12.9 0.00 0.03 0.03 48 1016.7
20260504000325 25 360 6.4 12.9 0.00 0.03 0.03 46 1016.7
20260503235826 25 360 4.8 9.7 0.00 0.03 0.03 47 1016.8
20260503235327 25 360 4.8 14.5 0.00 0.03 0.03 45 1016.8
20260503234826 26 360 4.8 16.1 0.00 0.03 0.03 45 1016.7
20260503234346 26 360 8.0 14.5 0.00 0.03 0.03 44 1016.7
20260503233824 26 360 4.8 14.5 0.00 0.03 0.03 45 1016.7
20260503233326 26 360 8.0 14.5 0.00 0.03 0.03 43 1016.7
20260503232823 26 360 6.4 14.5 0.00 0.03 0.03 44 1016.7
20260503232320 27 360 1.6 12.9 0.00 0.03 0.03 45 1016.8
20260503231819 27 360 4.8 17.7 0.00 0.03 0.03 43 1016.7
20260503231316 27 360 6.4 17.7 0.00 0.03 0.03 43 1016.6
20260503230816 27 360 6.4 14.5 0.00 0.03 0.03 41 1016.6
20260503230313 26 360 4.8 16.1 0.00 0.03 0.03 45 1016.7
20260503225831 26 360 8.0 16.1 0.00 0.03 0.03 43 1016.8
20260503225330 27 360 6.4 14.5 0.00 0.03 0.03 42 1016.8
20260503224828 27 360 4.8 17.7 0.00 0.03 0.03 39 1016.9
20260503224345 28 360 11.3 19.3 0.00 0.03 0.03 40 1017.1
20260503223825 28 360 11.3 19.3 0.00 0.03 0.03 39 1017.1
20260503223324 28 360 6.4 14.5 0.00 0.03 0.03 40 1017.1
20260503222821 28 360 3.2 14.5 0.00 0.03 0.03 42 1017.2
20260503222341 28 360 6.4 22.5 0.00 0.03 0.03 39 1017.2
20260503221839 28 360 9.7 22.5 0.00 0.03 0.03 37 1017.2
20260503221317 28 360 6.4 17.7 0.00 0.03 0.03 40 1017.3
20260503220817 28 360 8.0 17.7 0.00 0.03 0.03 41 1017.5
20260503220337 28 360 6.4 16.1 0.00 0.03 0.03 39 1017.5
20260503215815 28 360 6.4 16.1 0.00 0.03 0.03 41 1017.6
20260503215314 28 360 6.4 16.1 0.00 0.03 0.03 42 1017.6
20260503214812 28 360 9.7 19.3 0.00 0.03 0.03 39 1017.6
20260503214332 28 360 12.9 19.3 0.00 0.03 0.03 42 1017.6
20260503213831 28 360 3.2 16.1 0.00 0.03 0.03 43 1017.8
20260503213331 28 360 8.0 16.1 0.00 0.03 0.03 39 1018.0
20260503212830 28 360 6.4 14.5 0.00 0.03 0.03 39 1018.1
20260503212326 27 360 4.8 20.9 0.00 0.03 0.03 43 1018.2
20260503211848 27 360 14.5 22.5 0.00 0.03 0.03 40 1018.4
20260503211327 27 360 9.7 20.9 0.00 0.03 0.03 42 1018.4
20260503210826 27 360 6.4 19.3 0.00 0.03 0.03 42 1018.5
20260503210325 27 360 9.7 19.3 0.00 0.03 0.03 38 1018.5
20260503205825 28 360 8.0 20.9 0.00 0.03 0.03 41 1018.7
20260503205324 27 360 8.0 20.9 0.00 0.03 0.03 40 1018.8
20260503204824 27 360 6.4 27.4 0.00 0.03 0.03 40 1018.9
20260503204340 27 360 14.5 27.4 0.00 0.03 0.03 38 1019.0
20260503203817 28 360 8.0 19.3 0.00 0.03 0.03 39 1019.0
20260503203317 28 360 4.8 19.3 0.00 0.03 0.03 42 1019.1
20260503202814 27 360 4.8 19.3 0.00 0.03 0.03 40 1019.2
20260503202312 27 360 8.0 19.3 0.00 0.03 0.03 43 1019.2
20260503201812 28 360 6.4 14.5 0.00 0.03 0.03 42 1019.3
20260503201332 27 360 6.4 14.5 0.00 0.03 0.03 40 1019.3
20260503200831 28 360 8.0 20.9 0.00 0.03 0.03 38 1019.4
20260503200332 28 360 8.0 20.9 0.00 0.03 0.03 38 1019.6
20260503195830 28 360 4.8 12.9 0.00 0.03 0.03 41 1019.6
20260503195329 27 360 6.4 20.9 0.00 0.03 0.03 40 1019.6
20260503194829 27 360 6.4 19.3 0.00 0.03 0.03 43 1019.8
20260503194348 27 360 9.7 19.3 0.00 0.03 0.03 40 1019.7
20260503193845 27 360 8.0 16.1 0.00 0.03 0.03 39 1019.8
20260503193325 27 360 8.0 17.7 0.00 0.03 0.03 39 1020.0
20260503192824 27 360 8.0 17.7 0.00 0.03 0.03 41 1020.1
20260503192324 27 360 6.4 20.9 0.00 0.03 0.03 38 1020.0
20260503191823 27 360 6.4 20.9 0.00 0.03 0.03 41 1020.2
20260503191320 27 360 9.7 19.3 0.00 0.03 0.03 38 1020.3
20260503190820 27 360 8.0 17.7 0.00 0.03 0.03 42 1020.3
20260503190320 27 360 8.0 17.7 0.00 0.03 0.03 40 1020.5
20260503185840 27 360 8.0 17.7 0.00 0.03 0.03 41 1020.5
20260503185317 27 360 6.4 17.7 0.00 0.03 0.03 38 1020.5
20260503184817 27 360 11.3 19.3 0.00 0.03 0.03 40 1020.7
20260503184316 27 360 11.3 19.3 0.00 0.03 0.03 42 1020.7
20260503183837 27 360 6.4 17.7 0.00 0.03 0.03 45 1020.6
20260503183313 27 360 8.0 17.7 0.00 0.03 0.03 43 1020.8
20260503182813 27 360 4.8 17.7 0.00 0.03 0.03 43 1020.9
20260503182315 27 360 6.4 24.1 0.00 0.03 0.03 41 1021.0
20260503181814 27 360 14.5 24.1 0.00 0.03 0.03 43 1021.1
20260503181335 27 360 8.0 17.7 0.00 0.03 0.03 40 1021.2
20260503180830 27 360 4.8 22.5 0.00 0.03 0.03 43 1021.3
20260503180317 27 360 9.7 22.5 0.00 0.03 0.03 41 1021.4
20260503175851 27 360 6.4 22.5 0.00 0.03 0.03 42 1021.4
20260503175329 27 360 6.4 14.5 0.00 0.03 0.03 44 1021.5
20260503174826 27 360 4.8 19.3 0.00 0.03 0.03 44 1021.6
20260503174326 27 360 9.7 19.3 0.00 0.03 0.03 47 1021.7
20260503173825 26 360 9.7 17.7 0.00 0.03 0.03 46 1021.8
20260503173324 26 360 4.8 16.1 0.00 0.03 0.03 45 1021.8
20260503172839 26 360 8.0 16.1 0.00 0.03 0.03 47 1022.0
20260503172315 26 360 3.2 30.6 0.00 0.03 0.03 46 1022.0
20260503171814 26 360 6.4 30.6 0.00 0.03 0.03 49 1022.2
20260503171334 26 360 9.7 30.6 0.00 0.03 0.03 47 1022.2
20260503170813 26 360 9.7 19.3 0.00 0.03 0.03 47 1022.3
20260503170313 26 360 9.7 19.3 0.00 0.03 0.03 46 1022.4